Bishopton, United Kingdom

12:01 PM GMT on January 23, 2017 (GMT +0000)
Glasgow

Weather History for EGPF - December, 2013

Change the Weather History Date:

Thursday, December 26, 2013

  Actual Average Record
Temperature  
Mean Temperature 40 °F -  
Max Temperature 44 °F 43 °F 55 °F (2011)
Min Temperature 35 °F 33 °F 14 °F (2010)
Degree Days  
Heating Degree Days 26    
Moisture  
Dew Point 37 °F    
Average Humidity 88    
Maximum Humidity 93    
Minimum Humidity 81    
Precipitation  
Precipitation 0.00 in - - ()
Sea Level Pressure  
Sea Level Pressure 29.11 in    
Wind  
Wind Speed 8 mph ()    
Max Wind Speed 23 mph    
Max Gust Speed -    
Visibility 6.2 miles    
Events Rain    
Averages and records for this station are not official NWS values.
T = Trace of Precipitation, MM = Missing Value Source: Averaged Metar Reports

Daily Weather History Graph

Daily Weather History Graph

Search for Another Location

Airport or City:

Trip Planner

Search our weather history database for the weather conditions in past years. The results will help you decide how hot, cold, wet, or windy it might be!

Date:

Astronomy

Dec. 26, 2013 Rise Set
Actual Time 8:48 AM GMT 3:48 PM GMT
Civil Twilight 8:01 AM GMT 4:35 PM GMT
Nautical Twilight 7:12 AM GMT 5:24 PM GMT
Astronomical Twilight 6:26 AM GMT 6:10 PM GMT
Moon 1:08 AM GMT (12/26) 12:05 PM GMT (12/26)
Length of Visible Light 8h 34m
Length of Day
7h 00m
Last Quarter, 41% of the Moon is Illuminated
Dec 26
Last Quarter
Jan 1
New
Jan 8
First Quarter
Jan 16
Full
Jan 24
Last Quarter

Hourly Weather History & Observations

Time (GMT) Temp. Windchill Dew Point Humidity Pressure Visibility Wind Dir Wind Speed Gust Speed Precip Events Conditions
12:20 AM 39.2 °F 34.2 °F 35.6 °F 87% 29.06 in - West 6.9 mph - N/A   Clear
12:50 AM 37.4 °F 32.8 °F 35.6 °F 93% 29.06 in 6.2 mi WSW 5.8 mph - N/A   Partly Cloudy
1:20 AM 37.4 °F 32.1 °F 35.6 °F 93% 29.06 in 6.2 mi WSW 6.9 mph - N/A   Partly Cloudy
1:50 AM 37.4 °F 31.4 °F 35.6 °F 93% 29.09 in 6.2 mi South 8.1 mph - N/A   Partly Cloudy
2:20 AM 39.2 °F 34.2 °F 35.6 °F 87% 29.09 in 6.2 mi South 6.9 mph - N/A   Partly Cloudy
2:50 AM 39.2 °F 33.0 °F 35.6 °F 87% 29.09 in 6.2 mi South 9.2 mph - N/A   Scattered Clouds
3:20 AM 39.2 °F 33.0 °F 35.6 °F 87% 29.12 in 6.2 mi SSW 9.2 mph - N/A   Mostly Cloudy
3:50 AM 35.6 °F 28.6 °F 33.8 °F 93% 29.12 in 6.2 mi SW 9.2 mph - N/A   Scattered Clouds
4:20 AM 39.2 °F 31.2 °F 37.4 °F 93% 29.12 in 6.2 mi SSW 13.8 mph - N/A   Mostly Cloudy
4:50 AM 39.2 °F 33.0 °F 37.4 °F 93% 29.12 in 6.2 mi SSW 9.2 mph - N/A   Partly Cloudy
5:20 AM 39.2 °F 37.0 °F 37.4 °F 93% 29.15 in 6.2 mi WSW 3.5 mph - N/A   Mostly Cloudy
5:50 AM 39.2 °F 33.6 °F 37.4 °F 93% 29.15 in 6.2 mi SSW 8.1 mph - N/A   Mostly Cloudy
6:20 AM 41.0 °F 35.8 °F 37.4 °F 87% 29.15 in 6.2 mi SSW 8.1 mph - N/A   Mostly Cloudy
6:50 AM 39.2 °F 34.2 °F 37.4 °F 93% 29.18 in 6.2 mi SSW 6.9 mph - N/A   Mostly Cloudy
7:20 AM 39.2 °F 35.9 °F 35.6 °F 87% 29.18 in 6.2 mi SW 4.6 mph - N/A   Mostly Cloudy
7:50 AM 39.2 °F 35.0 °F 35.6 °F 87% 29.18 in 6.2 mi SW 5.8 mph - N/A   Mostly Cloudy
8:20 AM 39.2 °F 35.0 °F 37.4 °F 93% 29.21 in 6.2 mi SSW 5.8 mph - N/A   Scattered Clouds
8:50 AM 39.2 °F 34.2 °F 37.4 °F 93% 29.21 in 6.2 mi SW 6.9 mph - N/A   Mostly Cloudy
9:20 AM 39.2 °F 33.6 °F 37.4 °F 93% 29.24 in 6.2 mi SSW 8.1 mph - N/A   Scattered Clouds
9:50 AM 37.4 °F 33.8 °F 35.6 °F 93% 29.24 in 6.2 mi West 4.6 mph - N/A   Partly Cloudy
10:20 AM 39.2 °F 34.2 °F 37.4 °F 93% 29.24 in 6.2 mi SSW 6.9 mph - N/A   Partly Cloudy
10:50 AM 42.8 °F 37.0 °F 39.2 °F 87% 29.27 in 6.2 mi SW 10.4 mph - N/A Rain Light Rain Showers
11:20 AM 42.8 °F 37.0 °F 39.2 °F 87% 29.27 in 6.2 mi SW 10.4 mph - N/A   Mostly Cloudy
11:50 AM 42.8 °F 37.0 °F 39.2 °F 87% 29.27 in 6.2 mi SW 10.4 mph - N/A   Scattered Clouds
12:20 PM 42.8 °F 39.3 °F 39.2 °F 87% 29.27 in 6.2 mi SSW 5.8 mph - N/A   Scattered Clouds
12:50 PM 42.8 °F 38.6 °F 39.2 °F 87% 29.27 in 6.2 mi SW 6.9 mph - N/A   Mostly Cloudy
1:20 PM 44.6 °F 40.2 °F 39.2 °F 81% 29.27 in 6.2 mi SSW 8.1 mph - N/A   Mostly Cloudy
1:50 PM 44.6 °F 41.4 °F 39.2 °F 81% 29.24 in 6.2 mi SW 5.8 mph - N/A   Mostly Cloudy
2:20 PM 41.0 °F 36.4 °F 39.2 °F 93% 29.24 in 6.2 mi SSW 6.9 mph - N/A   Mostly Cloudy
2:50 PM 42.8 °F 38.6 °F 39.2 °F 87% 29.24 in 6.2 mi South 6.9 mph - N/A Rain Light Rain
3:20 PM 41.0 °F 38.0 °F 37.4 °F 87% 29.24 in 6.2 mi South 4.6 mph - N/A   Mostly Cloudy
3:50 PM 39.2 °F 35.9 °F 35.6 °F 87% 29.21 in 6.2 mi SSE 4.6 mph - N/A   Mostly Cloudy
4:20 PM 37.4 °F - 35.6 °F 93% 29.21 in 6.2 mi Calm Calm - N/A   Mostly Cloudy
4:50 PM 37.4 °F 33.8 °F 33.8 °F 87% 29.21 in 6.2 mi East 4.6 mph - N/A   Mostly Cloudy
5:20 PM 37.4 °F 34.9 °F 35.6 °F 93% 29.21 in 6.2 mi Variable 3.5 mph - N/A   Scattered Clouds
5:50 PM 37.4 °F 31.4 °F 33.8 °F 87% 29.18 in 6.2 mi SE 8.1 mph - N/A   Partly Cloudy
6:20 PM 37.4 °F 31.4 °F 33.8 °F 87% 29.15 in 6.2 mi ESE 8.1 mph - N/A   Partly Cloudy
6:50 PM 37.4 °F 30.8 °F 35.6 °F 93% 29.09 in 6.2 mi East 9.2 mph - N/A   Partly Cloudy
7:20 PM 39.2 °F 32.5 °F 35.6 °F 87% 29.06 in 6.2 mi East 10.4 mph - N/A   Scattered Clouds
7:50 PM 39.2 °F 32.5 °F 35.6 °F 87% 29.03 in 6.2 mi ESE 10.4 mph - N/A   Mostly Cloudy
8:20 PM 41.0 °F 34.3 °F 35.6 °F 81% 29.00 in 6.2 mi ESE 11.5 mph - N/A   Mostly Cloudy
8:50 PM 41.0 °F 32.5 °F 35.6 °F 81% 28.94 in 6.2 mi SE 17.3 mph - N/A   Scattered Clouds
9:20 PM 41.0 °F 32.2 °F 35.6 °F 81% 28.91 in 6.2 mi ESE 18.4 mph - N/A Rain Light Rain
9:50 PM 41.0 °F 32.8 °F 35.6 °F 81% 28.82 in 6.2 mi East 16.1 mph - N/A   Mostly Cloudy
10:20 PM 41.0 °F 31.9 °F 35.6 °F 81% 28.77 in 6.2 mi East 19.6 mph - N/A Rain Light Rain
10:50 PM 41.0 °F 31.6 °F 35.6 °F 81% 28.71 in 6.2 mi ESE 20.7 mph - N/A Rain Light Rain
11:20 PM 39.2 °F 29.0 °F 35.6 °F 87% 28.62 in 6.2 mi ESE 21.9 mph - N/A Rain Light Rain
11:50 PM 39.2 °F 28.7 °F 35.6 °F 87% 28.56 in 6.2 mi ESE 23.0 mph - N/A Rain Light Rain